Total_Precipitation_Accumulation
0.82 0.50 0.24 0.17 0.12 0.02 0.01 0.02 0.02 0.04 0.04 0.05 0.05 0.06 0.07 0.06 0.10 0.10 0.09 0.09 0.15 0.28 0.26 0.16 0.09 0.08 0.10 0.11 0.13 0.16 0.10 0.15 0.21 0.61 1.01 0.55 0.31 0.23 0.22 0.35 0.38 0.36 0.65
1.76 1.09 0.63 0.26 0.13 0.03 0.02 0.02 0.04 0.02 0.03 0.04 0.04 0.04 0.04 0.04 0.04 0.04 0.07 0.08 0.13 0.16 0.08 0.03 0.03 0.09 0.15 0.09 0.09 0.04 0.04 0.06 0.09 0.32 0.72 0.70 0.53 0.25 0.25 0.37 0.43 0.49 0.55
1.61 1.87 1.49 0.69 0.34 0.07 0.03 0.05 0.05 0.03 0.02 0.01 0.02 0.02 0.04 0.03 0.06 0.07 0.07 0.04 0.08 0.12 0.06 0.03 0.09 0.21 0.25 0.10 0.05 0.02 0.03 0.03 0.07 0.27 0.51 0.71 0.47 0.62 0.53 0.54 0.52 0.71 0.49
0.52 0.54 1.99 2.15 0.97 0.45 0.19 0.12 0.08 0.04 0.02 0.05 0.02 0.01 0.02 0.03 0.07 0.18 0.24 0.09 0.05 0.12 0.14 0.10 0.16 0.20 0.16 0.05 0.02 0.02 0.01 0.02 0.07 0.21 0.47 0.52 0.68 1.09 0.97 0.96 0.68 0.70 0.66
0.92 0.75 0.68 1.21 1.44 1.09 0.50 0.32 0.19 0.05 0.00 0.02 0.02 0.01 0.01 0.07 0.20 0.24 0.33 0.22 0.11 0.33 0.65 0.58 0.54 0.22 0.04 0.01 0.01 0.00 0.00 0.02 0.05 0.20 0.96 1.22 1.38 1.38 1.17 1.18 0.97 0.80 0.95
1.96 1.71 1.50 1.37 1.13 1.43 1.21 0.95 0.50 0.10 0.02 0.06 0.03 0.13 0.18 0.40 0.41 0.32 0.27 0.41 0.51 0.69 0.79 0.84 0.88 0.32 0.02 0.02 0.00 0.01 0.00 0.04 0.08 0.17 0.86 0.72 1.09 1.46 1.08 0.75 0.65 0.57 0.66
3.11 3.53 2.28 3.25 2.61 2.34 1.84 1.63 1.48 0.95 0.21 0.27 0.20 0.30 0.43 0.40 0.41 0.46 0.56 0.71 1.01 1.10 0.99 0.88 0.77 0.53 0.09 0.05 0.04 0.07 0.03 0.09 0.13 0.48 1.25 1.73 1.18 1.35 0.98 0.71 0.59 0.58 0.74
2.91 3.59 3.53 4.68 6.45 4.68 3.18 2.77 2.90 2.60 1.90 1.00 0.71 0.71 1.09 1.37 1.29 0.93 0.77 0.90 1.06 1.19 1.06 0.84 0.76 0.64 0.34 0.16 0.23 0.17 0.16 0.14 0.18 0.63 1.02 1.12 0.88 1.20 0.93 0.76 0.76 0.79 0.50
6.22 6.41 5.89 5.76 6.76 6.41 5.77 4.50 4.04 4.09 5.35 4.85 2.97 2.31 2.43 1.96 1.54 1.18 0.86 0.73 0.55 0.58 0.96 0.87 0.69 0.64 0.46 0.43 0.41 0.37 0.39 0.28 0.20 0.27 1.06 1.24 1.23 1.47 1.34 0.95 0.68 0.66 0.64
7.46 8.57 8.09 7.94 7.68 5.10 4.67 4.32 3.65 4.53 3.66 4.87 4.67 3.60 2.21 1.76 1.40 0.93 0.83 0.66 0.62 0.49 0.48 0.50 0.71 0.65 0.57 0.45 0.43 0.43 0.40 0.34 0.19 0.26 0.59 0.75 1.11 1.33 1.28 0.92 0.79 0.60 0.59
3.97 4.57 5.03 6.27 6.76 6.19 4.45 3.33 2.71 3.24 5.15 2.71 2.79 2.83 2.70 1.50 1.22 0.92 0.72 0.73 0.76 0.63 0.44 0.56 0.52 0.39 0.48 0.54 0.47 0.49 0.44 0.25 0.20 0.43 0.40 0.79 1.14 1.49 1.54 1.11 0.84 0.66 0.80
1.59 2.89 3.31 2.98 2.34 2.41 2.36 2.35 2.05 2.62 4.17 3.65 2.52 1.78 1.22 1.35 0.79 0.62 0.87 0.78 1.13 1.09 1.08 1.03 0.72 0.74 0.72 0.32 0.50 0.63 0.43 0.53 0.39 0.51 0.52 0.78 1.04 1.31 1.89 1.64 1.14 1.04 1.02
0.78 1.45 1.59 1.30 1.02 0.80 0.68 0.93 1.34 2.66 3.20 3.42 2.35 1.87 1.22 1.17 0.96 0.56 0.66 1.14 1.28 1.40 0.98 0.99 0.88 0.90 0.81 0.71 0.80 0.68 0.47 0.33 0.32 0.53 0.87 1.01 0.89 1.16 1.86 1.85 1.31 1.04 1.23
0.54 0.81 0.90 0.66 0.50 0.41 0.30 0.51 0.81 1.35 2.44 2.15 2.20 1.82 1.42 0.80 0.84 0.65 0.68 1.05 1.23 1.19 1.01 1.07 0.91 0.98 1.00 0.96 1.35 1.26 1.14 1.04 1.03 1.21 1.20 1.10 1.01 1.21 1.37 1.86 1.58 1.38 1.26
0.47 0.49 0.81 0.77 0.51 0.36 0.28 0.37 0.63 0.87 2.08 1.38 2.23 1.56 1.34 0.54 0.78 0.69 0.73 0.83 0.87 1.24 1.29 1.37 1.45 1.27 1.12 1.28 2.00 2.68 2.57 1.91 1.40 1.10 0.80 1.02 0.76 1.25 1.25 1.91 3.44 2.83 2.22
0.32 0.44 0.50 0.55 0.74 0.68 0.76 0.86 0.84 1.22 1.67 1.47 1.98 1.21 1.44 0.47 0.54 0.58 0.71 0.92 0.82 1.43 1.47 1.51 1.63 1.62 1.44 2.09 3.26 3.42 2.66 1.69 1.15 0.94 0.91 1.09 1.06 1.18 1.58 2.05 3.50 3.93 3.33
0.23 0.38 0.61 0.72 0.49 0.55 0.88 1.15 1.24 1.55 1.80 1.69 1.89 1.39 1.36 0.63 0.61 0.77 1.10 1.18 1.07 1.11 1.61 1.96 2.00 2.18 2.64 2.82 3.30 3.06 2.10 1.31 1.06 0.88 1.13 1.29 1.12 1.08 1.41 2.30 2.94 2.21 2.01
0.08 0.30 0.71 0.91 0.85 0.71 0.61 0.72 1.14 1.21 1.38 1.51 1.75 1.57 1.63 1.33 0.98 1.04 1.19 1.14 1.06 1.07 1.32 2.14 2.32 2.31 2.54 2.46 1.97 1.47 1.33 1.25 0.78 0.67 0.78 1.00 1.10 0.94 0.95 1.53 3.48 2.94 1.95
0.10 0.22 0.63 1.02 1.21 1.13 0.96 1.24 0.90 0.51 0.73 0.87 1.17 1.22 1.68 1.74 1.23 1.13 1.10 1.06 0.81 0.91 1.22 1.68 1.86 1.40 1.18 1.31 1.04 0.91 0.71 0.57 0.64 0.70 0.57 0.56 0.80 0.99 1.16 1.26 2.24 2.33 2.06
0.13 0.17 0.59 1.25 1.42 1.26 0.84 0.69 0.67 0.45 0.62 0.63 0.92 1.10 1.23 1.35 1.53 1.59 1.54 1.25 1.11 0.80 0.65 0.62 0.90 1.24 1.13 1.54 1.72 1.30 1.00 0.62 0.67 0.65 0.46 0.52 0.46 0.63 0.86 1.38 1.56 1.42 1.64
0.10 0.21 0.52 0.98 1.41 0.76 0.43 0.34 0.49 0.50 0.53 0.47 0.55 0.88 1.17 1.12 1.22 1.51 2.03 1.83 1.65 1.24 1.02 1.06 1.08 1.21 1.25 1.49 1.90 1.78 1.57 1.27 1.01 0.76 0.62 0.52 0.52 0.64 0.66 0.74 1.18 0.94 0.85
0.13 0.43 0.53 0.59 0.76 0.68 0.47 0.39 0.35 0.39 0.57 0.47 0.62 0.74 0.92 1.16 1.38 1.59 1.62 1.73 1.64 1.87 1.65 1.32 1.42 1.39 1.25 1.43 1.72 1.90 2.08 1.98 1.85 1.88 1.61 1.05 0.72 0.72 0.77 0.88 0.94 0.93 0.87
0.04 0.24 0.33 0.46 0.52 0.55 0.56 0.64 0.63 0.75 0.78 0.82 0.63 0.60 0.70 1.02 1.36 1.58 1.25 1.86 2.22 1.99 1.80 2.01 2.09 2.10 2.06 2.18 2.20 2.33 2.45 1.84 1.56 1.72 1.69 1.31 0.96 0.85 0.70 0.77 0.76 0.82 0.94
0.11 0.43 0.36 0.43 0.45 0.46 0.52 0.56 0.59 0.73 0.56 0.46 0.53 0.51 0.69 0.63 1.01 1.54 1.56 1.42 1.88 1.87 1.70 1.77 2.15 2.46 2.83 2.75 2.97 2.74 2.55 2.50 2.58 2.27 1.95 1.83 1.56 1.27 1.14 1.08 1.03 0.92 0.99
0.15 0.42 0.39 0.48 0.64 0.55 0.61 0.63 0.58 0.58 0.54 0.55 0.60 0.66 0.74 0.80 0.74 1.13 1.41 1.60 1.50 1.79 1.82 1.89 2.06 2.19 2.14 2.41 2.46 2.42 2.30 2.02 2.09 2.19 1.89 1.90 1.84 1.39 1.13 1.11 1.13 1.14 1.12
0.19 0.42 0.57 0.59 0.53 0.51 0.72 0.79 0.61 0.57 0.59 0.74 0.79 0.78 0.86 0.91 1.04 1.13 1.45 1.84 1.96 1.61 1.84 2.04 2.02 2.19 2.21 2.48 2.54 2.15 1.78 1.82 1.54 1.57 1.54 1.32 1.39 1.29 1.14 1.24 1.18 1.13 1.21